[[{"header":{"parameterUnit":"m.s-1","parameterCategory":2,"la1":30.2991,"la2":30.254,"lo1":-89.0895,"lo2":-89.0444,"dy":0.0017,"dx":0.0017,"nx":28,"ny":28,"refTime":"2024-12-08T03:00:00:Z","depth":"0","parameterNumber":2,"parameterNumberName":"U-component_of_CURRENTS"},"data":[0,0,0,0,0,0,0,0,0,0,0,0,0,0,0,0,0,0,0,0,0,0,0,0,0,0,0,0,0,0,0,0,0,0,0,0,0,0,0,0,0,0,0,0,0,0,0,0,0,0,0,0,0,0,0,0,0,0,0.1946,0.1947,0,0.1992,0.1993,0.1994,0.2031,0.2031,0.2031,0.2032,0.2066,0.2067,0.2067,0,0,0,0,0,0,0,0,0,0,0,0,0,0.1802,0.1805,0.1946,0.1947,0.1947,0.1992,0.1993,0.1994,0.2031,0.2031,0.2031,0.2032,0.2066,0.2067,0.2067,0,0,0,0,0,0,0,0,0,0,0,0,0,0.186,0.1806,0.1946,0.1969,0.1972,0.1992,0.1993,0.1994,0.2031,0.2031,0.2032,0.2032,0.2065,0.2067,0.2068,0.2069,0,0,0.2071,0.2072,0,0,0,0,0,0,0,0,0.1857,0.1866,0.1966,0.1968,0.197,0.2004,0.1954,0.2018,0.2031,0.2011,0.2032,0.2032,0.2042,0.2045,0.2057,0.2071,0.2072,0.2071,0.2072,0.2072,0.2073,0,0,0,0,0,0,0,0.1853,0.1863,0.1967,0.1966,0.1969,0.1946,0.1956,0.1966,0.2026,0.2013,0.2015,0.2016,0.2044,0.2056,0.2058,0.2073,0.2071,0.2072,0.2073,0.2073,0.2106,0.2106,0,0,0,0,0,0,0.1848,0.1861,0.1965,0.1968,0.191,0.1949,0.196,0.1995,0.2026,0.2031,0.2016,0.2018,0.2054,0.2057,0.2059,0.2062,0.2072,0.2073,0.2074,0.2106,0.2106,0.2106,0,0,0,0,0,0,0.1845,0.1858,0.1963,0.1911,0.1922,0.1952,0.199,0.1996,0.2005,0.2029,0.2033,0.2018,0.2054,0.2058,0.209,0.2064,0.2074,0.2075,0.2105,0.2106,0.2106,0.2068,0,0,0,0,0,0,0.1841,0.1858,0.1866,0.1912,0.1925,0.1955,0.199,0.1996,0.2004,0.2007,0.2032,0.2036,0.2055,0.2088,0.2091,0.2065,0.2076,0.2105,0.2106,0.2106,0.2069,0.2067,0.2065,0,0,0,0,0,0.1837,0.1836,0.1867,0.1878,0.1943,0.1954,0.1958,0.198,0.2003,0.1993,0.2042,0.2035,0.2091,0.209,0.2093,0.2067,0.2105,0.2105,0.2106,0.207,0.2067,0.2065,0,0,0,0,0,0,0.1771,0.1842,0.1876,0.1898,0.1919,0.1959,0.1944,0.1975,0.2005,0.2012,0.205,0.2057,0.2074,0.2082,0.208,0.208,0.2091,0.2092,0.2062,0.206,0.2058,0.2035,0.2077,0,0,0,0,0,0.1765,0.1789,0.1846,0.1858,0.1868,0.1911,0.1915,0.1938,0.1974,0.1988,0.2019,0.205,0.2078,0.208,0.2104,0.2104,0.2102,0.2087,0.2085,0.2083,0.2067,0.2067,0.2063,0.2108,0.2108,0.2108,0,0,0.1742,0.1781,0.1795,0.1844,0.1865,0.1878,0.1914,0.1916,0.1935,0.1985,0.2016,0.2048,0.2082,0.2093,0.2097,0.2093,0.2069,0.2083,0.2081,0.2066,0.2067,0.2063,0.2059,0.2108,0.2108,0.2108,0,0,0.1702,0.1745,0.1754,0.177,0.1799,0.183,0.1831,0.1878,0.1902,0.1939,0.1987,0.2008,0.2047,0.2063,0.2078,0.2076,0.2069,0.2078,0.2035,0.2035,0.2031,0.2027,0.2012,0.2008,0.2065,0.2064,0.2064,0,0.1671,0.1706,0.1747,0.1754,0.1763,0.1811,0.1816,0.1845,0.1899,0.192,0.1939,0.2008,0.2028,0.2046,0.2047,0.2066,0.2067,0.2039,0.203,0.2027,0.2023,0.2009,0.2005,0.2063,0.2063,0.2063,0.2063,0,0.1649,0.1668,0.1661,0.1708,0.1717,0.1717,0.1771,0.1792,0.1834,0.187,0.1904,0.1948,0.1982,0.1987,0.2017,0.2003,0.2012,0.2037,0.203,0.2016,0.2003,0.1999,0.206,0.2061,0.2061,0.2062,0,0,0.161,0.1646,0.1644,0.1656,0.1695,0.1703,0.1729,0.1768,0.1793,0.183,0.1855,0.1892,0.1914,0.1932,0.1964,0.1954,0.193,0.1977,0.1978,0.1951,0.1921,0.1929,0.1925,0.1958,0.1957,0.1956,0.1918,0,0.1585,0.1591,0.1618,0.1616,0.1625,0.1669,0.1692,0.1729,0.1773,0.1807,0.1837,0.1874,0.1895,0.1913,0.1905,0.1942,0.1918,0.1937,0.1948,0.1948,0.1947,0.192,0.1931,0.1898,0.1914,0.1913,0.1912,0,0.1557,0.157,0.1569,0.1593,0.16,0.1607,0.1652,0.1678,0.173,0.1765,0.1791,0.1834,0.184,0.1861,0.1868,0.1884,0.1886,0.1898,0.1898,0.1912,0.1947,0.1918,0.189,0.1791,0.1906,0.1906,0.1907,0,0.1512,0.1529,0.1529,0.1535,0.1575,0.1583,0.1605,0.1659,0.1682,0.1735,0.1753,0.1786,0.1802,0.1813,0.1845,0.1857,0.1847,0.1872,0.1869,0.187,0.1882,0.1885,0.1749,0.1847,0.1847,0.1847,0.1848,0,0.1475,0.1466,0.1508,0.1504,0.1506,0.1545,0.1555,0.1594,0.1638,0.1651,0.172,0.1735,0.1791,0.1808,0.1825,0.1833,0.183,0.1845,0.1857,0.187,0.1872,0.1792,0.1775,0.1846,0.1846,0.1847,0.1847,0,0.1413,0.144,0.1437,0.1474,0.1481,0.148,0.1511,0.1526,0.1578,0.1596,0.1609,0.1685,0.1721,0.177,0.1794,0.1807,0.1777,0.1818,0.1823,0.1836,0.1749,0.1732,0.1597,0.1578,0.1802,0.1802,0.1802,0,0.1381,0.1379,0.1403,0.1398,0.1409,0.1418,0.1428,0.1484,0.1503,0.156,0.1562,0.1618,0.1667,0.1718,0.1772,0.1806,0.1748,0.1806,0.1826,0.1721,0.1711,0.165,0.164,0.1824,0.1824,0.1824,0.1824,0,0.1321,0.1332,0.1334,0.1328,0.133,0.1339,0.1357,0.1367,0.1431,0.1459,0.1495,0.1542,0.1634,0.1694,0.176,0.1792,0.1739,0.1807,0.1699,0.1706,0.163,0.1627,0.1857,0.1825,0.1825,0.1825,0.1825,0.1825,0.1267,0.1256,0.126,0.1255,0.1253,0.1257,0.1252,0.1291,0.1314,0.1355,0.1418,0.146,0.1588,0.171,0.1736,0.1736,0.1727,0.17,0.1683,0.1624,0.161,0.1829,0.1817,0.1817,0.1817,0.1817,0.1816,0,0.1192,0.1193,0.1186,0.1175,0.1154,0.1183,0.1202,0.1195,0.1213,0.1268,0.1315,0.139,0.1483,0.1564,0.1634,0.1602,0.1587,0.1548,0.1454,0.1452,0.1645,0.165,0.1599,0.1599,0.1599,0.1599,0.1599,0.1599,0.1142,0.1118,0.1134,0.1087,0.1082,0.1046,0.1054,0.1058,0.1079,0.1096,0.1119,0.1196,0.1308,0.1399,0.1408,0.1418,0.1315,0.1295,0.1243,0.1364,0.1376,0.1387,0.1381,0.1275,0.1275,0.1037,0.1035,0.1034]},{"header":{"parameterUnit":"m.s-1","parameterCategory":2,"la1":30.2991,"la2":30.254,"lo1":-89.0895,"lo2":-89.0444,"dy":0.0017,"dx":0.0017,"nx":28,"ny":28,"refTime":"2024-12-08T03:00:00:Z","depth":"0","parameterNumber":3,"parameterNumberName":"V-component_of_CURRENTS"},"data":[0,0,0,0,0,0,0,0,0,0,0,0,0,0,0,0,0,0,0,0,0,0,0,0,0,0,0,0,0,0,0,0,0,0,0,0,0,0,0,0,0,0,0,0,0,0,0,0,0,0,0,0,0,0,0,0,0,0,0.0096,0.0096,0,0.0101,0.0101,0.0101,0.0127,0.0127,0.0127,0.0127,0.0257,0.026,0.0263,0,0,0,0,0,0,0,0,0,0,0,0,0,0.0103,0.0103,0.0096,0.0096,0.0096,0.0101,0.0101,0.0101,0.0126,0.0127,0.0127,0.0128,0.0256,0.0259,0.0263,0,0,0,0,0,0,0,0,0,0,0,0,0,0.0106,0.0104,0.0096,0.0107,0.0107,0.0101,0.0101,0.0102,0.0126,0.0127,0.0127,0.0128,0.0254,0.0259,0.0264,0.0283,0,0,0.0278,0.028,0,0,0,0,0,0,0,0,0.0106,0.0106,0.0105,0.0106,0.0107,0.0111,0.0151,0.0167,0.0126,0.0122,0.0127,0.0128,0.0217,0.0225,0.0227,0.0289,0.0294,0.0278,0.0281,0.0283,0.0285,0,0,0,0,0,0,0,0.0106,0.0106,0.0101,0.0105,0.0106,0.0109,0.011,0.0154,0.0172,0.0123,0.0124,0.0119,0.0219,0.0222,0.0231,0.0296,0.0278,0.0282,0.0285,0.0287,0.0345,0.0344,0,0,0,0,0,0,0.0099,0.0106,0.0101,0.0101,0.0104,0.0108,0.011,0.0112,0.0169,0.0176,0.0119,0.012,0.0214,0.0225,0.0236,0.0249,0.0283,0.0288,0.029,0.0347,0.0345,0.0344,0,0,0,0,0,0,0.0099,0.0099,0.0101,0.0101,0.0101,0.0107,0.0109,0.0111,0.0113,0.0164,0.0174,0.0117,0.0215,0.0229,0.0264,0.0255,0.029,0.0294,0.0348,0.0346,0.0344,0.0286,0,0,0,0,0,0,0.01,0.0099,0.0101,0.0101,0.0101,0.0098,0.0108,0.0111,0.0108,0.011,0.0166,0.0178,0.0216,0.0256,0.0268,0.0262,0.0298,0.035,0.0347,0.0345,0.0289,0.0282,0.0276,0,0,0,0,0,0.01,0.0098,0.0101,0.01,0.0102,0.0097,0.0098,0.0106,0.0107,0.0109,0.0137,0.0176,0.0249,0.0259,0.0274,0.0269,0.0351,0.0348,0.0345,0.0292,0.0284,0.0276,0,0,0,0,0,0,0.0112,0.01,0.0104,0.0102,0.01,0.0101,0.0099,0.01,0.0121,0.0127,0.0172,0.0186,0.0208,0.0242,0.0252,0.0274,0.0302,0.0302,0.0257,0.0249,0.0243,0.0253,0.0302,0,0,0,0,0,0.0111,0.0103,0.0099,0.0099,0.0094,0.0095,0.0093,0.0098,0.0111,0.012,0.0153,0.0185,0.0206,0.0231,0.0259,0.0285,0.0296,0.0285,0.0278,0.0272,0.0287,0.0277,0.0271,0.0334,0.0334,0.0334,0,0,0.0117,0.0108,0.0106,0.0099,0.0098,0.0097,0.0096,0.0093,0.0097,0.0134,0.0154,0.0167,0.0204,0.0221,0.0234,0.0254,0.0254,0.0269,0.0264,0.0282,0.0273,0.0267,0.0262,0.0332,0.0333,0.0333,0,0,0.0117,0.0114,0.0106,0.0102,0.0094,0.0095,0.0091,0.009,0.0095,0.0111,0.0124,0.0128,0.0181,0.019,0.0205,0.018,0.0213,0.0185,0.0174,0.0162,0.0157,0.0154,0.0138,0.0133,0.0188,0.0188,0.0188,0,0.0125,0.0117,0.0105,0.0098,0.0097,0.0092,0.0092,0.0094,0.0106,0.0109,0.0117,0.0141,0.0165,0.0172,0.0156,0.0167,0.0167,0.0203,0.0154,0.0151,0.0148,0.0133,0.0128,0.0185,0.0185,0.0186,0.0186,0,0.0118,0.0115,0.0109,0.0101,0.01,0.0097,0.0096,0.0097,0.01,0.0102,0.0104,0.0117,0.0135,0.0126,0.0141,0.0123,0.0129,0.014,0.0177,0.0138,0.0124,0.012,0.0181,0.0182,0.0183,0.0183,0,0,0.0124,0.0108,0.0107,0.0107,0.0101,0.01,0.0103,0.0104,0.0103,0.0106,0.0104,0.0107,0.0102,0.0117,0.0116,0.0104,0.0062,0.0114,0.0115,0.0103,0.0033,0.0029,0.0025,0.0065,0.0065,0.0064,0.0024,0,0.0124,0.0116,0.0109,0.011,0.0107,0.0107,0.011,0.0111,0.0112,0.011,0.0103,0.0104,0.0102,0.01,0.0085,0.0074,0.0054,0.0073,0.0071,0.0071,0.0076,0.0021,0.0064,0.0032,0.0021,0.002,0.002,0,0.0117,0.0114,0.0114,0.0113,0.0112,0.0115,0.0118,0.0119,0.0114,0.0115,0.0109,0.0105,0.0086,0.0086,0.0053,0.0066,0.0048,0.0035,0.0033,0.0056,0.0061,0.0073,0.0026,-0.0,0.0014,0.0015,0.0015,0,0.0119,0.0115,0.0118,0.0117,0.0117,0.012,0.0121,0.012,0.012,0.0113,0.0112,0.0095,0.0086,0.0063,0.0038,0.0044,-0.0,0.0006,-0.0017,-0.0018,0.0034,0.0039,-0.0028,-0.0022,-0.0022,-0.0022,-0.0021,0,0.0116,0.0115,0.0119,0.0118,0.0122,0.0122,0.0125,0.0123,0.0121,0.0118,0.0111,0.0107,0.008,0.0056,0.0033,-0.0005,-0.0005,-0.0025,-0.003,0.0011,0.0014,0.0009,-0.0,-0.0023,-0.0023,-0.0022,-0.0022,0,0.0111,0.0112,0.0112,0.0118,0.012,0.0121,0.0125,0.0125,0.0125,0.0121,0.0119,0.0108,0.0084,0.0053,0.0012,-0.0012,-0.0052,-0.006,-0.0014,-0.0013,-0.0056,-0.007,-0.0118,-0.011,-0.0094,-0.0094,-0.0095,0,0.0106,0.0106,0.0112,0.0114,0.0115,0.012,0.0122,0.0125,0.0127,0.0124,0.0121,0.0102,0.0111,0.005,0.0003,-0.0043,-0.0061,-0.0054,-0.0035,-0.0062,-0.0081,-0.0089,-0.0079,0.0,0.0001,0.0001,0.0002,0,0.01,0.0103,0.0107,0.0112,0.0114,0.0121,0.0126,0.0133,0.0136,0.0156,0.0166,0.0177,0.0121,0.0118,0.0049,0.0004,-0.0051,-0.0048,-0.0081,-0.002,-0.0025,-0.0018,0.0022,0.0005,0.0005,0.0005,0.0004,0.0004,0.0098,0.01,0.0108,0.0118,0.0119,0.0133,0.0173,0.0186,0.0221,0.0299,0.0245,0.0337,0.0271,0.02,0.0097,-0.003,-0.0031,-0.0039,-0.0057,-0.0067,-0.0047,-0.0008,-0.0026,-0.0027,-0.0027,-0.0028,-0.0028,0,0.0106,0.0112,0.0115,0.0134,0.0159,0.0158,0.0191,0.0263,0.035,0.0417,0.0479,0.0542,0.046,0.0325,0.0133,0.0012,-0.0029,-0.0056,-0.0048,-0.004,-0.0007,0.001,0.0008,0.0008,0.0008,0.0008,0.0008,0.0008,0.0109,0.0123,0.0134,0.0181,0.0206,0.0285,0.0335,0.0433,0.052,0.0685,0.0801,0.0859,0.0763,0.0352,0.0084,0.0008,-0.0052,-0.0084,-0.0121,-0.0092,-0.0091,-0.009,-0.0077,-0.0098,-0.0099,-0.0112,-0.0113,-0.0113]}],[{"header":{"parameterUnit":"m.s-1","parameterCategory":2,"la1":30.2991,"la2":30.254,"lo1":-89.0895,"lo2":-89.0444,"dy":0.0017,"dx":0.0017,"nx":28,"ny":28,"refTime":"2024-12-08T03:00:00:Z","depth":"2","parameterNumber":2,"parameterNumberName":"U-component_of_CURRENTS"},"data":[0,0,0,0,0,0,0,0,0,0,0,0,0,0,0,0,0,0,0,0,0,0,0,0,0,0,0,0,0,0,0,0,0,0,0,0,0,0,0,0,0,0,0,0,0,0,0,0,0,0,0,0,0,0,0,0,0,0,-0.0136,-0.0135,0,0.0093,0.0096,0.01,0.0401,0.0405,0.0409,0.0413,0.0652,0.0655,0.0657,0,0,0,0,0,0,0,0,0,0,0,0,0,-0.0107,-0.011,-0.0137,-0.0135,-0.0133,0.0093,0.0097,0.0101,0.04,0.0405,0.041,0.0415,0.0651,0.0654,0.0658,0,0,0,0,0,0,0,0,0,0,0,0,0,-0.0015,-0.0111,-0.0137,0.0037,0.0054,0.0092,0.0097,0.0102,0.0399,0.0405,0.0411,0.0417,0.065,0.0654,0.0658,0.056,0,0,0.067,0.0672,0,0,0,0,0,0,0,0,-0.0021,-0.0015,0.0009,0.0025,0.0044,0.0216,0.0195,0.0252,0.0398,0.0278,0.0413,0.042,0.0496,0.0513,0.0557,0.0571,0.0581,0.067,0.0673,0.0674,0.0675,0,0,0,0,0,0,0,-0.0028,-0.0022,-0.0036,0.0011,0.0032,0.0174,0.0193,0.0209,0.0358,0.0289,0.0309,0.0318,0.0508,0.0552,0.0564,0.0585,0.067,0.0674,0.0676,0.0677,0.0688,0.0686,0,0,0,0,0,0,-0.0094,-0.0031,-0.0043,-0.003,0.0015,0.0167,0.0189,0.0163,0.0358,0.0391,0.0312,0.033,0.0543,0.0559,0.0574,0.0608,0.0674,0.0678,0.068,0.069,0.0688,0.0686,0,0,0,0,0,0,-0.0095,-0.0099,-0.0053,-0.0029,-0.0014,0.0157,0.0127,0.0164,0.0251,0.0374,0.0411,0.0366,0.0548,0.0568,0.0604,0.0614,0.068,0.0683,0.0693,0.0689,0.0687,0.0586,0,0,0,0,0,0,-0.0096,-0.0102,-0.0111,-0.0036,-0.0019,-0.001,0.0122,0.0164,0.0239,0.0268,0.0429,0.0457,0.0554,0.0597,0.0608,0.0621,0.0686,0.0695,0.0691,0.0688,0.0592,0.058,0.0569,0,0,0,0,0,-0.0096,-0.0118,-0.0114,-0.0113,-0.0049,-0.0012,0.0012,0.0164,0.0235,0.0267,0.036,0.0454,0.0583,0.0597,0.061,0.0625,0.0697,0.0692,0.0688,0.0597,0.0582,0.0569,0,0,0,0,0,0,-0.0103,-0.009,-0.0081,-0.0099,-0.0064,0.0037,0.0107,0.0148,0.0247,0.0322,0.0406,0.0437,0.0479,0.0534,0.0547,0.0613,0.0662,0.0659,0.0588,0.0575,0.0564,0.0651,0.0689,0,0,0,0,0,-0.0133,-0.0134,-0.0121,-0.013,-0.0103,-0.0017,0.0027,0.0121,0.0198,0.0257,0.0319,0.0408,0.0454,0.0503,0.0557,0.0565,0.0631,0.0587,0.0575,0.0566,0.0642,0.0679,0.0679,0.0671,0.0671,0.0671,0,0,-0.0135,-0.013,-0.0128,-0.013,-0.0059,-0.0036,0.0035,0.0131,0.0148,0.0254,0.0308,0.0361,0.044,0.0482,0.0506,0.0543,0.0588,0.056,0.0552,0.0636,0.0674,0.0676,0.0677,0.0667,0.0668,0.0668,0,0,-0.014,-0.0139,-0.0134,-0.0108,-0.0031,0.0007,0.0013,0.0091,0.0148,0.0159,0.0249,0.0306,0.0346,0.0431,0.047,0.0412,0.0513,0.0416,0.0455,0.0484,0.0488,0.0491,0.0523,0.053,0.0427,0.0427,0.0427,0,-0.0126,-0.0154,-0.0124,-0.0105,-0.0068,0.0003,0.0029,0.0061,0.0127,0.0146,0.0182,0.0281,0.0338,0.0408,0.042,0.0398,0.0434,0.0498,0.0474,0.048,0.0485,0.0518,0.0527,0.0421,0.0422,0.0423,0.0423,0,-0.0137,-0.0136,-0.0112,-0.009,-0.0061,-0.0001,0.0021,0.0046,0.0087,0.011,0.0169,0.0246,0.0326,0.0324,0.0373,0.0437,0.0451,0.0438,0.0517,0.0481,0.0515,0.0527,0.0414,0.0416,0.0417,0.0419,0,0,-0.0123,-0.0125,-0.0104,-0.0092,-0.0025,-0.0,0.0013,0.0032,0.0062,0.0109,0.0139,0.0225,0.0296,0.0349,0.0402,0.0463,0.0498,0.049,0.0494,0.054,0.0577,0.0603,0.0619,0.0477,0.048,0.0482,0.0566,0,-0.0114,-0.0116,-0.0111,-0.0078,-0.0057,-0.0003,-0.0009,0.003,0.0056,0.0084,0.0177,0.0239,0.0285,0.0359,0.0413,0.0493,0.0536,0.048,0.0596,0.0601,0.0644,0.0637,0.053,0.06,0.0579,0.0581,0.0582,0,-0.0085,-0.0103,-0.0088,-0.0069,-0.0048,-0.0023,0.0035,0.004,0.0084,0.0117,0.0205,0.0259,0.0385,0.0408,0.0558,0.052,0.0566,0.0616,0.0618,0.0719,0.0654,0.0643,0.0624,0.0603,0.0602,0.06,0.0599,0,-0.0055,-0.0055,-0.0051,-0.0034,-0.0024,0.001,0.0033,0.0076,0.0106,0.0169,0.0229,0.0324,0.0436,0.0502,0.0624,0.0591,0.0777,0.0709,0.0772,0.0772,0.0755,0.0751,0.0805,0.0805,0.0805,0.0805,0.0804,0,-0.002,0.0007,-0.0029,-0.0014,0.003,0.0041,0.0111,0.0134,0.0193,0.0266,0.0284,0.0391,0.0477,0.0579,0.0636,0.0777,0.0774,0.0829,0.0816,0.0707,0.0698,0.0774,0.077,0.0808,0.0807,0.0806,0.0806,0,0.0068,0.0031,0.005,0.0039,0.0059,0.0111,0.0184,0.0225,0.0269,0.0375,0.0414,0.0482,0.0626,0.0694,0.0823,0.0829,0.0922,0.0957,0.0838,0.0812,0.0881,0.087,0.1019,0.1021,0.1023,0.1025,0.1026,0,0.0115,0.0122,0.0117,0.0153,0.0175,0.0235,0.0289,0.03,0.0345,0.0454,0.0517,0.0651,0.0759,0.0926,0.0974,0.1054,0.1032,0.0968,0.0893,0.0942,0.0913,0.0898,0.0885,0.0793,0.0793,0.0792,0.0791,0,0.0224,0.023,0.0238,0.0283,0.0341,0.037,0.0436,0.0463,0.0499,0.058,0.071,0.0793,0.0939,0.0976,0.105,0.1063,0.0939,0.096,0.1054,0.0766,0.0739,0.0706,0.0699,0.0786,0.0786,0.0787,0.0787,0.0787,0.0359,0.0381,0.0394,0.0444,0.0486,0.0514,0.0539,0.0586,0.0655,0.0741,0.0829,0.0902,0.0913,0.0989,0.1007,0.0978,0.103,0.0916,0.0913,0.0912,0.0882,0.0861,0.0925,0.0926,0.0927,0.0928,0.0929,0,0.0517,0.0518,0.0561,0.0584,0.0613,0.0615,0.0643,0.0633,0.0705,0.0779,0.089,0.0847,0.0873,0.0869,0.0839,0.0859,0.0802,0.0793,0.0682,0.0689,0.0694,0.0647,0.0631,0.063,0.063,0.0629,0,0,0.0616,0.0656,0.0624,0.0686,0.0709,0.071,0.0708,0.0707,0.0708,0.0748,0.0758,0.0854,0.0835,0.0731,0.0726,0.0667,0.0666,0.0638,0.0872,0.0746,0.075,0.076,0.0696,0,0,0,0,0]},{"header":{"parameterUnit":"m.s-1","parameterCategory":2,"la1":30.2991,"la2":30.254,"lo1":-89.0895,"lo2":-89.0444,"dy":0.0017,"dx":0.0017,"nx":28,"ny":28,"refTime":"2024-12-08T03:00:00:Z","depth":"2","parameterNumber":3,"parameterNumberName":"V-component_of_CURRENTS"},"data":[0,0,0,0,0,0,0,0,0,0,0,0,0,0,0,0,0,0,0,0,0,0,0,0,0,0,0,0,0,0,0,0,0,0,0,0,0,0,0,0,0,0,0,0,0,0,0,0,0,0,0,0,0,0,0,0,0,0,-0.0359,-0.0359,0,-0.0407,-0.0408,-0.0408,-0.0452,-0.0452,-0.0453,-0.0453,-0.0469,-0.0469,-0.0469,0,0,0,0,0,0,0,0,0,0,0,0,0,-0.0273,-0.0274,-0.0358,-0.0359,-0.036,-0.0407,-0.0408,-0.0408,-0.0451,-0.0452,-0.0453,-0.0453,-0.0469,-0.0469,-0.0469,0,0,0,0,0,0,0,0,0,0,0,0,0,-0.0315,-0.0275,-0.0358,-0.0387,-0.039,-0.0407,-0.0408,-0.0409,-0.0451,-0.0452,-0.0453,-0.0454,-0.0469,-0.0469,-0.0469,-0.0453,0,0,-0.0469,-0.0469,0,0,0,0,0,0,0,0,-0.0312,-0.0318,-0.0382,-0.0385,-0.0388,-0.0424,-0.0383,-0.0422,-0.0451,-0.0428,-0.0453,-0.0454,-0.045,-0.0452,-0.046,-0.0454,-0.0455,-0.0469,-0.0469,-0.0469,-0.0469,0,0,0,0,0,0,0,-0.0309,-0.0316,-0.0378,-0.0383,-0.0387,-0.0387,-0.0394,-0.0391,-0.0434,-0.043,-0.0433,-0.0439,-0.0452,-0.046,-0.046,-0.0455,-0.0469,-0.0469,-0.0469,-0.0469,-0.05,-0.0501,0,0,0,0,0,0,-0.0304,-0.0313,-0.0376,-0.0379,-0.0351,-0.0388,-0.0396,-0.0412,-0.0435,-0.0439,-0.0438,-0.044,-0.046,-0.0461,-0.0461,-0.0484,-0.0469,-0.0469,-0.0469,-0.0499,-0.05,-0.0501,0,0,0,0,0,0,-0.0302,-0.031,-0.0374,-0.0346,-0.0355,-0.0389,-0.0406,-0.0412,-0.0425,-0.0441,-0.0445,-0.0445,-0.046,-0.0461,-0.0486,-0.0483,-0.0469,-0.0469,-0.0498,-0.0499,-0.0501,-0.0503,0,0,0,0,0,0,-0.03,-0.0309,-0.0325,-0.0347,-0.0356,-0.0389,-0.0406,-0.0413,-0.0427,-0.0431,-0.0448,-0.045,-0.0461,-0.0486,-0.0485,-0.0483,-0.0469,-0.0497,-0.0499,-0.05,-0.0501,-0.0504,-0.0506,0,0,0,0,0,-0.0297,-0.031,-0.0326,-0.0334,-0.0376,-0.0389,-0.0394,-0.042,-0.0426,-0.0434,-0.0461,-0.045,-0.0496,-0.0487,-0.0486,-0.0483,-0.0496,-0.0498,-0.05,-0.05,-0.0503,-0.0506,0,0,0,0,0,0,-0.0272,-0.0316,-0.0334,-0.0359,-0.0376,-0.0397,-0.0409,-0.0417,-0.0442,-0.0451,-0.0462,-0.0467,-0.0487,-0.0488,-0.0477,-0.05,-0.0493,-0.0495,-0.0493,-0.0496,-0.0498,-0.0472,-0.0468,0,0,0,0,0,-0.0276,-0.0306,-0.0333,-0.0353,-0.0363,-0.0384,-0.0395,-0.041,-0.0431,-0.0443,-0.0461,-0.0479,-0.0492,-0.0498,-0.0513,-0.0519,-0.0506,-0.0518,-0.0521,-0.0522,-0.0503,-0.05,-0.05,-0.0508,-0.0508,-0.0508,0,0,-0.0269,-0.03,-0.0315,-0.0352,-0.037,-0.038,-0.0393,-0.041,-0.042,-0.0439,-0.0468,-0.0487,-0.0498,-0.0519,-0.0526,-0.0519,-0.0516,-0.0525,-0.0526,-0.0505,-0.0502,-0.0501,-0.05,-0.0509,-0.0509,-0.0509,0,0,-0.026,-0.03,-0.0316,-0.0333,-0.0364,-0.0381,-0.0383,-0.0411,-0.0429,-0.0457,-0.0475,-0.0493,-0.052,-0.0526,-0.053,-0.0548,-0.053,-0.0558,-0.054,-0.0539,-0.0537,-0.0536,-0.0522,-0.0519,-0.0555,-0.0555,-0.0555,0,-0.0246,-0.0276,-0.0318,-0.0331,-0.0341,-0.0378,-0.0379,-0.0402,-0.0437,-0.0443,-0.047,-0.0502,-0.0518,-0.0516,-0.0535,-0.0548,-0.0544,-0.0527,-0.0539,-0.0537,-0.0536,-0.0521,-0.0518,-0.0555,-0.0555,-0.0555,-0.0555,0,-0.0244,-0.0266,-0.0273,-0.0312,-0.033,-0.0337,-0.0372,-0.0395,-0.0425,-0.0442,-0.0463,-0.0496,-0.0507,-0.0522,-0.0537,-0.053,-0.0531,-0.0544,-0.0526,-0.0534,-0.052,-0.0516,-0.0555,-0.0555,-0.0555,-0.0555,0,0,-0.0216,-0.0259,-0.0268,-0.027,-0.0318,-0.0325,-0.0353,-0.0373,-0.0374,-0.0425,-0.0422,-0.0462,-0.0475,-0.048,-0.0498,-0.0501,-0.0499,-0.052,-0.0519,-0.0493,-0.0488,-0.0473,-0.0467,-0.052,-0.0519,-0.0519,-0.0483,0,-0.0197,-0.0206,-0.0244,-0.0248,-0.0248,-0.0291,-0.0312,-0.034,-0.0368,-0.0383,-0.0412,-0.0427,-0.046,-0.0468,-0.0476,-0.0495,-0.049,-0.0507,-0.0494,-0.0492,-0.0467,-0.0463,-0.0404,-0.0366,-0.048,-0.0479,-0.0479,0,-0.0191,-0.0194,-0.0196,-0.0207,-0.0213,-0.023,-0.0254,-0.0276,-0.0308,-0.0331,-0.0347,-0.0372,-0.0384,-0.0419,-0.0431,-0.0444,-0.046,-0.0474,-0.0474,-0.0449,-0.047,-0.0377,-0.0355,-0.0473,-0.0473,-0.0474,-0.0474,0,-0.0156,-0.0164,-0.0163,-0.0169,-0.0194,-0.0204,-0.0224,-0.0259,-0.0267,-0.0295,-0.0298,-0.032,-0.0333,-0.0358,-0.0395,-0.0416,-0.0404,-0.0435,-0.0426,-0.0425,-0.0363,-0.0358,-0.0429,-0.0429,-0.0429,-0.0429,-0.0429,0,-0.0131,-0.013,-0.0145,-0.0144,-0.0136,-0.0171,-0.0172,-0.0198,-0.0221,-0.0217,-0.0267,-0.0255,-0.0322,-0.0329,-0.0367,-0.0377,-0.0379,-0.0406,-0.0411,-0.0365,-0.036,-0.0445,-0.0448,-0.0428,-0.0428,-0.0428,-0.0428,0,-0.0113,-0.0126,-0.0113,-0.0121,-0.0126,-0.0127,-0.0145,-0.0139,-0.0172,-0.0165,-0.0175,-0.0206,-0.0217,-0.0263,-0.0296,-0.0331,-0.0349,-0.0351,-0.0287,-0.0285,-0.0378,-0.0381,-0.0335,-0.0334,-0.0333,-0.0332,-0.0332,0,-0.0109,-0.0102,-0.0096,-0.0087,-0.0096,-0.0096,-0.01,-0.0126,-0.0117,-0.0123,-0.0113,-0.0123,-0.0105,-0.0142,-0.0203,-0.0241,-0.0298,-0.0236,-0.0266,-0.0357,-0.0367,-0.0371,-0.0375,-0.0186,-0.0184,-0.0183,-0.0182,0,-0.0084,-0.0091,-0.0079,-0.006,-0.0056,-0.0037,-0.0038,-0.002,-0.0042,-0.0015,0.0019,0.004,0.0,-0.0013,-0.0087,-0.012,-0.023,-0.021,-0.0306,-0.0227,-0.0216,-0.0226,-0.0235,-0.017,-0.0171,-0.0172,-0.0172,-0.0173,-0.0072,-0.0055,-0.0044,-0.0024,-0.0011,0.0019,0.0059,0.0079,0.0122,0.0187,0.017,0.0227,0.0166,0.0119,0.002,-0.0113,-0.0123,-0.016,-0.0165,-0.017,-0.0167,-0.0157,-0.0097,-0.0098,-0.0099,-0.0099,-0.01,0,-0.0041,-0.0025,-0.0005,0.0028,0.0063,0.0057,0.0102,0.0164,0.0256,0.0315,0.0388,0.0373,0.0352,0.022,0.0053,-0.0042,-0.0063,-0.0088,-0.009,-0.0099,-0.0108,-0.0104,-0.0016,-0.0016,-0.0017,-0.0018,0,0,-0.0021,0.001,0.0024,0.009,0.0118,0.0191,0.0238,0.0328,0.0393,0.0492,0.0532,0.0621,0.0438,0.0346,0.0212,0.008,0.0009,0.0063,0.002,0.003,0.0021,-0.0111,-0.0109,0,0,0,0,0]}],[{"header":{"parameterUnit":"m.s-1","parameterCategory":2,"la1":30.2991,"la2":30.254,"lo1":-89.0895,"lo2":-89.0444,"dy":0.0017,"dx":0.0017,"nx":28,"ny":28,"refTime":"2024-12-08T03:00:00:Z","depth":"4","parameterNumber":2,"parameterNumberName":"U-component_of_CURRENTS"},"data":[0,0,0,0,0,0,0,0,0,0,0,0,0,0,0,0,0,0,0,0,0,0,0,0,0,0,0,0,0,0,0,0,0,0,0,0,0,0,0,0,0,0,0,0,0,0,0,0,0,0,0,0,0,0,0,0,0,0,-0.0084,-0.0084,0,-0.0131,-0.0132,-0.0133,-0.0209,-0.021,-0.0211,-0.0212,-0.0426,-0.0431,-0.0436,0,0,0,0,0,0,0,0,0,0,0,0,0,-0.0122,-0.012,-0.0084,-0.0084,-0.0085,-0.0131,-0.0132,-0.0133,-0.0209,-0.021,-0.0211,-0.0213,-0.0425,-0.043,-0.0436,0,0,0,0,0,0,0,0,0,0,0,0,0,-0.0133,-0.012,-0.0084,-0.0126,-0.013,-0.0131,-0.0132,-0.0133,-0.0208,-0.021,-0.0212,-0.0213,-0.0423,-0.043,-0.0437,-0.0446,0,0,-0.0458,-0.0461,0,0,0,0,0,0,0,0,-0.0133,-0.0132,-0.0119,-0.0123,-0.0127,-0.0163,-0.0224,-0.0245,-0.0208,-0.0182,-0.0212,-0.0214,-0.0351,-0.0364,-0.0371,-0.0457,-0.0466,-0.0459,-0.0463,-0.0466,-0.0468,0,0,0,0,0,0,0,-0.0132,-0.0131,-0.0106,-0.012,-0.0124,-0.0164,-0.0167,-0.0228,-0.0262,-0.0184,-0.0189,-0.0189,-0.0355,-0.0364,-0.0377,-0.0469,-0.0459,-0.0465,-0.0469,-0.0472,-0.0603,-0.0603,0,0,0,0,0,0,-0.0114,-0.0129,-0.0104,-0.0107,-0.0131,-0.0161,-0.0165,-0.0153,-0.0257,-0.0273,-0.0187,-0.0192,-0.0351,-0.0368,-0.0385,-0.0484,-0.0466,-0.0473,-0.0477,-0.0604,-0.0603,-0.0603,0,0,0,0,0,0,-0.0115,-0.0111,-0.0102,-0.0118,-0.012,-0.0158,-0.0144,-0.0152,-0.0172,-0.0258,-0.0277,-0.0199,-0.0353,-0.0375,-0.0446,-0.049,-0.0476,-0.0482,-0.0605,-0.0604,-0.0603,-0.0631,0,0,0,0,0,0,-0.0115,-0.0111,-0.0104,-0.0116,-0.0118,-0.0109,-0.0142,-0.0152,-0.0167,-0.0174,-0.0274,-0.0294,-0.0356,-0.0434,-0.0452,-0.05,-0.0488,-0.0606,-0.0604,-0.0603,-0.0631,-0.0631,-0.0631,0,0,0,0,0,-0.0116,-0.0109,-0.0103,-0.0101,-0.0104,-0.0108,-0.0113,-0.0149,-0.0166,-0.0172,-0.0238,-0.0292,-0.0439,-0.044,-0.0461,-0.0512,-0.0607,-0.0605,-0.0603,-0.0631,-0.0631,-0.0631,0,0,0,0,0,0,-0.0137,-0.0115,-0.011,-0.01,-0.01,-0.012,-0.0134,-0.0143,-0.0194,-0.0215,-0.0291,-0.0316,-0.0387,-0.0426,-0.0425,-0.0535,-0.0528,-0.0531,-0.0542,-0.0542,-0.0542,-0.0539,-0.0493,0,0,0,0,0,-0.0128,-0.0112,-0.0101,-0.0095,-0.0093,-0.0107,-0.0116,-0.0133,-0.0172,-0.0196,-0.0267,-0.0335,-0.0391,-0.0449,-0.0496,-0.057,-0.055,-0.0607,-0.0607,-0.0607,-0.0612,-0.0599,-0.0599,-0.0597,-0.0597,-0.0597,0,0,-0.0137,-0.0122,-0.0116,-0.0097,-0.0106,-0.0123,-0.0119,-0.0132,-0.0167,-0.0214,-0.0301,-0.0335,-0.04,-0.0478,-0.0515,-0.0529,-0.0589,-0.0605,-0.0606,-0.0611,-0.0597,-0.0598,-0.0598,-0.0596,-0.0596,-0.0597,0,0,-0.0149,-0.0128,-0.0121,-0.0125,-0.0124,-0.0135,-0.0134,-0.0156,-0.0186,-0.0249,-0.0285,-0.0332,-0.0445,-0.0493,-0.0533,-0.0554,-0.057,-0.0575,-0.0613,-0.06,-0.0601,-0.0601,-0.0545,-0.054,-0.0601,-0.0601,-0.0601,0,-0.0163,-0.0148,-0.0124,-0.0132,-0.0152,-0.0141,-0.0164,-0.0187,-0.0237,-0.0265,-0.0287,-0.0396,-0.0454,-0.0529,-0.0547,-0.0562,-0.0539,-0.0619,-0.0603,-0.0603,-0.0603,-0.0546,-0.054,-0.0602,-0.0602,-0.0602,-0.0601,0,-0.0174,-0.0175,-0.0178,-0.0183,-0.02,-0.0215,-0.0238,-0.0266,-0.0301,-0.0326,-0.0391,-0.0444,-0.0502,-0.0534,-0.057,-0.0603,-0.0577,-0.0587,-0.061,-0.0605,-0.0544,-0.0538,-0.0604,-0.0603,-0.0603,-0.0602,0,0,-0.0178,-0.0181,-0.0186,-0.0196,-0.023,-0.0237,-0.0301,-0.0334,-0.0352,-0.0418,-0.0447,-0.0548,-0.0539,-0.0576,-0.0602,-0.0626,-0.0603,-0.0625,-0.0624,-0.058,-0.0544,-0.0505,-0.0494,-0.062,-0.062,-0.062,-0.049,0,-0.0196,-0.0207,-0.0222,-0.0265,-0.0275,-0.0308,-0.0355,-0.0393,-0.0423,-0.0445,-0.0491,-0.0509,-0.0564,-0.0565,-0.0605,-0.0583,-0.0594,-0.0635,-0.0545,-0.0541,-0.0518,-0.0488,-0.062,-0.0486,-0.0484,-0.0483,-0.0482,0,-0.0207,-0.021,-0.0245,-0.028,-0.029,-0.0326,-0.0375,-0.0407,-0.0439,-0.0454,-0.0488,-0.0489,-0.0515,-0.0545,-0.0545,-0.057,-0.0564,-0.0562,-0.0557,-0.0512,-0.0492,-0.0496,-0.0471,-0.0472,-0.0473,-0.0473,-0.0474,0,-0.0201,-0.023,-0.0254,-0.0273,-0.0315,-0.035,-0.0371,-0.0414,-0.0411,-0.0417,-0.0389,-0.0438,-0.0396,-0.0439,-0.0428,-0.0483,-0.0398,-0.046,-0.0419,-0.0413,-0.0478,-0.048,-0.046,-0.046,-0.0461,-0.0461,-0.0462,0,-0.021,-0.0232,-0.0245,-0.0263,-0.0281,-0.0325,-0.0336,-0.036,-0.0356,-0.0328,-0.0359,-0.0328,-0.0368,-0.0329,-0.0379,-0.0345,-0.0343,-0.0408,-0.0384,-0.0486,-0.049,-0.0471,-0.0474,-0.0456,-0.0457,-0.0458,-0.0459,0,-0.021,-0.022,-0.0242,-0.0276,-0.0278,-0.0289,-0.0284,-0.0276,-0.0266,-0.0219,-0.0198,-0.0191,-0.0138,-0.015,-0.0152,-0.0223,-0.0227,-0.0217,-0.0257,-0.0239,-0.027,-0.0276,-0.0185,-0.0183,-0.0181,-0.0179,-0.0178,0,-0.0206,-0.0216,-0.0233,-0.0228,-0.0246,-0.0244,-0.0236,-0.0232,-0.021,-0.0147,-0.0118,-0.0031,-0.0031,0.003,-0.0027,-0.0046,-0.009,-0.0089,-0.0275,-0.0259,-0.0245,-0.0254,-0.0262,-0.0174,-0.0174,-0.0173,-0.0173,0,-0.0206,-0.0218,-0.0228,-0.021,-0.0204,-0.0184,-0.0169,-0.0139,-0.0119,-0.0078,-0.0019,-0.0007,0.0077,0.0051,0.01,0.0037,-0.0104,-0.0071,-0.0079,-0.0254,-0.0246,-0.0236,-0.0246,-0.0166,-0.0167,-0.0168,-0.0168,0,-0.0203,-0.0198,-0.0203,-0.0191,-0.0174,-0.0158,-0.0146,-0.011,-0.0075,-0.0012,0.0012,0.0068,0.011,0.0101,0.0105,0.0107,0.0024,-0.0076,-0.0086,-0.0094,-0.0138,-0.0119,0.0035,0,0,0,0,0,-0.018,-0.0175,-0.0174,-0.017,-0.016,-0.015,-0.012,-0.0108,-0.0063,-0.0011,0.0001,0.0066,0.0087,0.0088,0.0097,0.0085,0.0006,0.0083,-0.0119,-0.0128,-0.0136,-0.0205,0,0,0,0,0,0,-0.0165,-0.0163,-0.0171,-0.0163,-0.0155,-0.014,-0.0124,-0.0097,-0.0074,-0.0024,0.0006,0.0028,0.0069,0.0116,0.0097,0.0095,-0.0053,0.0111,0.0108,-0.0124,-0.0131,-0.0137,-0.0211,0,0,0,0,0]},{"header":{"parameterUnit":"m.s-1","parameterCategory":2,"la1":30.2991,"la2":30.254,"lo1":-89.0895,"lo2":-89.0444,"dy":0.0017,"dx":0.0017,"nx":28,"ny":28,"refTime":"2024-12-08T03:00:00:Z","depth":"4","parameterNumber":3,"parameterNumberName":"V-component_of_CURRENTS"},"data":[0,0,0,0,0,0,0,0,0,0,0,0,0,0,0,0,0,0,0,0,0,0,0,0,0,0,0,0,0,0,0,0,0,0,0,0,0,0,0,0,0,0,0,0,0,0,0,0,0,0,0,0,0,0,0,0,0,0,0.0349,0.0349,0,0.0329,0.0329,0.0328,0.0309,0.0309,0.0308,0.0308,0.0156,0.0152,0.0148,0,0,0,0,0,0,0,0,0,0,0,0,0,0.0362,0.0361,0.0349,0.0349,0.0349,0.0329,0.0329,0.0328,0.0309,0.0309,0.0308,0.0308,0.0157,0.0152,0.0148,0,0,0,0,0,0,0,0,0,0,0,0,0,0.0349,0.0361,0.0349,0.0338,0.0337,0.0329,0.0329,0.0328,0.0309,0.0309,0.0308,0.0308,0.0159,0.0153,0.0147,0.0113,0,0,0.0129,0.0126,0,0,0,0,0,0,0,0,0.035,0.0348,0.034,0.0339,0.0338,0.0323,0.0277,0.025,0.0309,0.0317,0.0308,0.0308,0.0201,0.0191,0.0187,0.0106,0.0099,0.0128,0.0125,0.0122,0.012,0,0,0,0,0,0,0,0.035,0.0349,0.0339,0.034,0.0339,0.0331,0.0329,0.0273,0.0256,0.0317,0.0316,0.0316,0.0199,0.0193,0.0183,0.0097,0.0128,0.0123,0.0119,0.0117,0.0064,0.0066,0,0,0,0,0,0,0.0357,0.035,0.034,0.0339,0.0345,0.0331,0.0329,0.0326,0.026,0.0251,0.0317,0.0316,0.0203,0.019,0.0177,0.017,0.0122,0.0117,0.0113,0.0062,0.0064,0.0067,0,0,0,0,0,0,0.0357,0.0356,0.0341,0.0346,0.0343,0.0332,0.0329,0.0326,0.033,0.0261,0.025,0.0325,0.0203,0.0186,0.0158,0.0163,0.0114,0.0108,0.0059,0.0063,0.0066,0.0132,0,0,0,0,0,0,0.0358,0.0356,0.0355,0.0346,0.0343,0.0337,0.0329,0.0326,0.0331,0.033,0.0264,0.025,0.0201,0.0168,0.0152,0.0154,0.0104,0.0057,0.0061,0.0065,0.0127,0.0137,0.0145,0,0,0,0,0,0.0358,0.035,0.0355,0.0354,0.0343,0.0337,0.0335,0.0325,0.0332,0.0329,0.0309,0.0252,0.0183,0.0164,0.0146,0.0145,0.0055,0.006,0.0064,0.0123,0.0135,0.0145,0,0,0,0,0,0,0.0349,0.0347,0.0353,0.0344,0.0345,0.0334,0.0328,0.0335,0.032,0.0319,0.0266,0.025,0.0229,0.0191,0.0172,0.0151,0.0114,0.0115,0.0165,0.0175,0.0184,0.0178,0.0099,0,0,0,0,0,0.035,0.0345,0.0348,0.0341,0.0343,0.0343,0.0342,0.0342,0.0329,0.0324,0.0293,0.0263,0.0234,0.0209,0.0173,0.0149,0.0131,0.0147,0.0156,0.0164,0.0152,0.0169,0.0178,0.0083,0.0083,0.0083,0,0,0.0344,0.0343,0.0339,0.0339,0.0337,0.0334,0.0341,0.0341,0.0341,0.0305,0.0297,0.0285,0.0238,0.0221,0.0209,0.0187,0.0185,0.017,0.0176,0.016,0.0175,0.0184,0.0192,0.0086,0.0086,0.0085,0,0,0.0322,0.033,0.0318,0.0322,0.0327,0.033,0.0337,0.0345,0.035,0.035,0.0335,0.0343,0.0286,0.0272,0.0251,0.0292,0.0235,0.0281,0.031,0.0328,0.0335,0.0341,0.0336,0.0341,0.0284,0.0284,0.0284,0,0.0313,0.0301,0.0313,0.0305,0.0307,0.0332,0.0325,0.0333,0.0337,0.0344,0.0352,0.0339,0.0311,0.0295,0.0322,0.0307,0.0301,0.0264,0.0338,0.0343,0.0348,0.0341,0.0346,0.0288,0.0287,0.0287,0.0287,0,0.0281,0.0278,0.0272,0.0272,0.0278,0.0277,0.0296,0.0316,0.0341,0.0353,0.0369,0.0368,0.0362,0.0368,0.035,0.0374,0.0353,0.0348,0.0303,0.0362,0.0351,0.0354,0.0293,0.0292,0.0291,0.029,0,0,0.0242,0.0247,0.0247,0.0246,0.0264,0.0263,0.0279,0.0296,0.0316,0.0346,0.0369,0.0373,0.0403,0.0386,0.0386,0.0409,0.0456,0.0398,0.0398,0.038,0.048,0.043,0.0428,0.0464,0.0465,0.0466,0.046,0,0.0212,0.0191,0.0206,0.0198,0.0192,0.0229,0.0243,0.0269,0.0304,0.0338,0.0368,0.039,0.0398,0.042,0.0444,0.0442,0.0468,0.0457,0.0436,0.0434,0.0372,0.0432,0.0469,0.0462,0.0463,0.0463,0.0464,0,0.0176,0.0168,0.0158,0.0169,0.0172,0.0194,0.0234,0.0252,0.0305,0.0335,0.0377,0.0396,0.0431,0.0451,0.0473,0.0465,0.0482,0.049,0.0489,0.0415,0.0391,0.0391,0.0469,0.0469,0.0469,0.0468,0.0468,0,0.0142,0.0134,0.0129,0.0132,0.0155,0.0185,0.0217,0.0269,0.03,0.0359,0.0393,0.0415,0.0453,0.047,0.048,0.0487,0.0498,0.0508,0.0477,0.0472,0.0486,0.0479,0.0546,0.0546,0.0546,0.0546,0.0546,0,0.0106,0.01,0.0128,0.0131,0.0159,0.0182,0.0236,0.0275,0.0336,0.0372,0.0411,0.0428,0.0468,0.0472,0.0477,0.0469,0.0496,0.0482,0.0473,0.0516,0.0513,0.0488,0.0482,0.0546,0.0546,0.0546,0.0546,0,0.0082,0.0088,0.0095,0.013,0.0155,0.0192,0.0276,0.031,0.0365,0.0419,0.0443,0.0459,0.046,0.0469,0.0486,0.0469,0.0463,0.0459,0.0482,0.0474,0.0427,0.0424,0.0431,0.0429,0.0428,0.0427,0.0426,0,0.0066,0.0067,0.0115,0.0163,0.0202,0.0261,0.0307,0.0346,0.0372,0.0418,0.0427,0.0453,0.0459,0.0423,0.0428,0.0424,0.0432,0.0419,0.0453,0.0427,0.0418,0.0418,0.0417,0.0423,0.0423,0.0423,0.0422,0,0.0052,0.0085,0.0109,0.0212,0.0277,0.0304,0.0364,0.0372,0.0401,0.0433,0.0422,0.0422,0.0417,0.0397,0.0398,0.0392,0.0415,0.0404,0.0408,0.044,0.0418,0.041,0.0411,0.0417,0.0418,0.0418,0.0419,0,0.0076,0.0103,0.0174,0.0267,0.0348,0.0373,0.0368,0.0381,0.0392,0.0417,0.0393,0.0405,0.0407,0.0378,0.0358,0.036,0.0377,0.0373,0.0379,0.0385,0.0371,0.0335,0.0305,0,0,0,0,0,0.0108,0.0158,0.0234,0.0325,0.0404,0.0434,0.043,0.0402,0.0389,0.0383,0.0397,0.0386,0.0376,0.0347,0.0347,0.0346,0.0382,0.0342,0.0382,0.0389,0.0395,0.0382,0,0,0,0,0,0,0.0135,0.0212,0.0237,0.0372,0.0442,0.0486,0.0471,0.0432,0.0404,0.0399,0.038,0.0385,0.0363,0.0406,0.0357,0.0354,0.0372,0.034,0.0339,0.0386,0.0391,0.0396,0.0385,0,0,0,0,0]}]]